Terminal Aerodrome Forecast
Issued by NWS Austin/San Antonio, TX

Home | Current Version | Previous Version | Text Only | Print | Product List | Glossary On
Versions: 1 2 3 4 5 6 7 8 9 10 11 12 13
000
FTUS44 KEWX 290500
TAFAUS
TAF
KAUS 290523Z 2906/3012 21004KT P6SM SKC
     FM290900 21005KT 1SM BR SCT003 SCT100
      TEMPO 2911/2915 BKN003
     FM291600 24005KT P6SM SCT100
     FM292100 02015KT P6SM BKN100=

USA.gov is the U.S. government's official web portal to all federal, state and local government web resources and services.